Regional Weather Roundup
Issued by NWS

Home | Current Version | Previous Version | Graphics & Text | Print | Product List | Glossary On
Versions: 1 2 3 4 5 6 7 8 9 10 11 12 13 14 15 16 17 18 19 20 21 22 23 24 25 26 27 28 29 30 31 32 33 34 35 36 37 38 39 40 41 42 43 44 45 46 47 48 49 50
000
ASUS45 KPSR 010210
RWRAZ

ARIZONA HOURLY REGIONAL WEATHER ROUNDUP
NATIONAL WEATHER SERVICE PHOENIX AZ
700 PM MST MON AUG 31 2015

NOTE: FAIR INDICATES FEW OR NO CLOUDS BELOW 12,000 FEET WITH NO
SIGNIFICANT WEATHER AND/OR OBSTRUCTIONS TO VISIBILITY.

AZZ001>003-036-010300-
NORTHWEST ARIZONA

CITY           SKY/WX    TMP DP  RH WIND       PRES   REMARKS
BULLHEAD CITY  CLEAR    102  46  15 S12       29.68S
KINGMAN        CLEAR     90  47  22 SW13      29.91F
$$

AZZ004>008-015-016-018-010300-
NORTH CENTRAL ARIZONA

CITY           SKY/WX    TMP DP  RH WIND       PRES   REMARKS
GRAND CANYON   PTCLDY    66  53  63 VRB5        N/A
WILLIAMS       MOCLDY    68  52  56 SE12G21   30.27R
PRESCOTT       PTCLDY    80  48  32 S5        30.08R
FLAGSTAFF      MOCLDY    62  53  72 E6        30.28S
PAYSON         MOCLDY    72  55  56 NE12G18   30.16R
PAGE           MOCLDY    81  53  37 S10       30.01S
$$

AZZ009>014-017-010300-
NORTHEAST ARIZONA

CITY           SKY/WX    TMP DP  RH WIND       PRES   REMARKS
WINSLOW        CLOUDY    67  59  75 S14       30.17F
SAINT JOHNS    CLOUDY    71  53  52 NW9       30.20R
WINDOW ROCK    CLOUDY    67  48  50 E5        30.26R
SHOW LOW       LGT RAIN  57  55  94 W5        30.29R
$$

AZZ023-010300-
GREATER PHOENIX AREA

CITY           SKY/WX    TMP DP  RH WIND       PRES   REMARKS
PHOENIX        MOCLDY   103  57  21 NE8       29.73R HX 102
BUCKEYE        CLEAR     99  50  19 SW9       29.73R
GLENDALE       PTCLDY   104  55  20 CALM      29.75R HX 103
LUKE AFB       CLEAR    103  56  21 SW2       29.72S HX 102
DEER VALLEY    CLEAR    100  56  23 CALM      29.77R
SCOTTSDALE     PTCLDY   100  56  23 SE3       29.79R
MESA-FALCON    MOCLDY   100  55  22 W6        29.77R
MESA-GATEWAY   SHOWER   100  55  22 SW3       29.80R
CHANDLER       PTCLDY    99  63  30 E6        29.76R HX 100
$$

AZZ027-028-010300-
SOUTHWEST MARICOPA COUNTY AND PINAL COUNTY

CITY           SKY/WX    TMP DP  RH WIND       PRES   REMARKS
CASA GRANDE    PTCLDY    99  57  25 CALM      29.77S
GILA BEND      PTCLDY   102  49  16 SW21      29.72R
$$

AZZ503-504-507>509-010300-
SOUTHEAST ARIZONA

CITY           SKY/WX    TMP DP  RH WIND       PRES   REMARKS
TUCSON         CLOUDY    90  58  33 S8        29.94R
DAVIS-MONTHAN  CLEAR     90  60  35 SW9       29.91S
RYAN FIELD     CLEAR     88  66  48 NW3       29.90S
NOGALES        CLOUDY    75  63  66 CALM      30.06S
SIERRA VISTA   CLOUDY    79  57  46 SW15      30.09F
DOUGLAS        CLOUDY    76  62  62 SW6       30.05S
SAFFORD        TSTM      70  62  76 S14       30.01R
$$

AZZ020-021-025-026-031-010300-
SOUTHWEST ARIZONA

CITY           SKY/WX    TMP DP  RH WIND       PRES   REMARKS
YUMA           MOCLDY   101  54  20 SE15      29.68R
$$

CAZ031-033-041-043-047-048-061-010300-
SOUTHERN CALIFORNIA

CITY           SKY/WX    TMP DP  RH WIND       PRES   REMARKS
DOWNTOWN L.A.  CLEAR     75  62  64 W7        29.84S
L.A. AIRPORT   PTCLDY    72  66  81 W10       29.85S
SAN DIEGO      MOCLDY    72  62  71 S8        29.88S
BURBANK        CLEAR     77  60  55 S9        29.84S
ONTARIO        CLEAR     79  56  45 SW12      29.84S
RIVERSIDE      CLEAR     78  60  53 W10       29.84R
PALM SPRINGS   CLEAR     98  46  17 NW20G29   29.70S
EL CENTRO NAS  PTCLDY   100  41  13 SW14      29.66S
IMPERIAL       CLEAR    101  44  14 W10       29.64R
BLYTHE         CLEAR    103  60  24 S13       29.66S HX 104
NEEDLES        CLEAR    104  46  14 SW10      29.69F HX 100
$$

NVZ020-UTZ003-010300-
SOUTHERN NEVADA-UTAH

CITY           SKY/WX    TMP DP  RH WIND       PRES   REMARKS
LAS VEGAS      PTCLDY    99  40  13 SW9       29.73S
SALT LAKE CITY PTCLDY    82  42  24 N6        29.94F
$$

NMZ009-TXZ055-010300-
NEW MEXICO-WEST TEXAS

CITY           SKY/WX    TMP DP  RH WIND       PRES   REMARKS
ALBUQUERQUE    CLOUDY    80  48  32 N8        30.12R
EL PASO        PTCLDY    90  42  18 S7        29.97S
$$


........................KEY........................
SKY/WX - SKY CONDITION/WEATHER
TMP    - TEMPERATURE IN FAHRENHEIT
DP     - DEW POINT IN FAHRENHEIT
RH     - RELATIVE HUMIDITY IN PERCENT
WIND   - DIRECTION AND SPEED IN MILES PER HOUR (MPH)
VRB    - VARIABLE WIND DIRECTION
PRES   - MEAN SEA LEVEL PRESSURE IN INCHES OF MERCURY
         F - FALLING PRESSURE   R - RISING PRESSURE
         S - STEADY PRESSURE
VSB    - VISIBILITY IN MILES
HX     - HEAT INDEX IN FAHRENHEIT
WCI    - WIND CHILL INDEX IN FAHRENHEIT
TC     - TEMPERATURE IN CELSIUS WHICH IS ALSO KNOWN AS
         TEMPERATURE IN CENTIGRADE
AFB    - AIR FORCE BASE
         LUKE AFB IS LUKE AIR FORCE BASE
         DAVIS-MONTHAN IS DAVIS-MONTHAN AIR FORCE BASE
NAS    - NAVAL AIR STATION
         EL CENTRO NAS IS EL CENTRO NAVAL AIR STATION
N/A    - NOT AVAILABLE




USA.gov is the U.S. government's official web portal to all federal, state and local government web resources and services.